Index of /20260429/WXO-DD/model_caps/3km/00/012
Name Last modified Size Description
Parent Directory -
20260429T00Z_MSC_CAPS_AbsoluteVorticity_IsbL-0250_RLatLon0.03_PT012H.grib2 2026-04-29 06:07 1.1M
20260429T00Z_MSC_CAPS_AbsoluteVorticity_IsbL-0500_RLatLon0.03_PT012H.grib2 2026-04-29 06:07 1.1M
20260429T00Z_MSC_CAPS_AbsoluteVorticity_IsbL-0700_RLatLon0.03_PT012H.grib2 2026-04-29 06:07 1.2M
20260429T00Z_MSC_CAPS_AbsoluteVorticity_IsbL-0850_RLatLon0.03_PT012H.grib2 2026-04-29 06:07 1.2M
20260429T00Z_MSC_CAPS_AbsoluteVorticity_IsbL-1000_RLatLon0.03_PT012H.grib2 2026-04-29 06:07 1.4M
20260429T00Z_MSC_CAPS_AirDensity_AGL-120m_RLatLon0.03_PT012H.grib2 2026-04-29 06:07 1.4M
20260429T00Z_MSC_CAPS_AirDensity_AGL-40m_RLatLon0.03_PT012H.grib2 2026-04-29 06:07 1.5M
20260429T00Z_MSC_CAPS_AirDensity_AGL-80m_RLatLon0.03_PT012H.grib2 2026-04-29 06:07 1.4M
20260429T00Z_MSC_CAPS_AirTemp_AGL-120m_RLatLon0.03_PT012H.grib2 2026-04-29 06:07 1.4M
20260429T00Z_MSC_CAPS_AirTemp_AGL-2m_RLatLon0.03_PT012H.grib2 2026-04-29 06:07 1.8M
20260429T00Z_MSC_CAPS_AirTemp_AGL-40m_RLatLon0.03_PT012H.grib2 2026-04-29 06:07 1.5M
20260429T00Z_MSC_CAPS_AirTemp_AGL-80m_RLatLon0.03_PT012H.grib2 2026-04-29 06:07 1.5M
20260429T00Z_MSC_CAPS_AirTemp_IsbL-0050_RLatLon0.03_PT012H.grib2 2026-04-29 06:07 692K
20260429T00Z_MSC_CAPS_AirTemp_IsbL-0100_RLatLon0.03_PT012H.grib2 2026-04-29 06:07 965K
20260429T00Z_MSC_CAPS_AirTemp_IsbL-0150_RLatLon0.03_PT012H.grib2 2026-04-29 06:07 1.0M
20260429T00Z_MSC_CAPS_AirTemp_IsbL-0175_RLatLon0.03_PT012H.grib2 2026-04-29 06:07 778K
20260429T00Z_MSC_CAPS_AirTemp_IsbL-0200_RLatLon0.03_PT012H.grib2 2026-04-29 06:07 796K
20260429T00Z_MSC_CAPS_AirTemp_IsbL-0225_RLatLon0.03_PT012H.grib2 2026-04-29 06:07 793K
20260429T00Z_MSC_CAPS_AirTemp_IsbL-0250_RLatLon0.03_PT012H.grib2 2026-04-29 06:07 789K
20260429T00Z_MSC_CAPS_AirTemp_IsbL-0275_RLatLon0.03_PT012H.grib2 2026-04-29 06:07 1.0M
20260429T00Z_MSC_CAPS_AirTemp_IsbL-0300_RLatLon0.03_PT012H.grib2 2026-04-29 06:07 865K
20260429T00Z_MSC_CAPS_AirTemp_IsbL-0350_RLatLon0.03_PT012H.grib2 2026-04-29 06:07 1.0M
20260429T00Z_MSC_CAPS_AirTemp_IsbL-0400_RLatLon0.03_PT012H.grib2 2026-04-29 06:07 753K
20260429T00Z_MSC_CAPS_AirTemp_IsbL-0450_RLatLon0.03_PT012H.grib2 2026-04-29 06:07 764K
20260429T00Z_MSC_CAPS_AirTemp_IsbL-0500_RLatLon0.03_PT012H.grib2 2026-04-29 06:07 779K
20260429T00Z_MSC_CAPS_AirTemp_IsbL-0550_RLatLon0.03_PT012H.grib2 2026-04-29 06:07 792K
20260429T00Z_MSC_CAPS_AirTemp_IsbL-0600_RLatLon0.03_PT012H.grib2 2026-04-29 06:07 809K
20260429T00Z_MSC_CAPS_AirTemp_IsbL-0650_RLatLon0.03_PT012H.grib2 2026-04-29 06:07 1.0M
20260429T00Z_MSC_CAPS_AirTemp_IsbL-0700_RLatLon0.03_PT012H.grib2 2026-04-29 06:07 1.0M
20260429T00Z_MSC_CAPS_AirTemp_IsbL-0750_RLatLon0.03_PT012H.grib2 2026-04-29 06:07 1.0M
20260429T00Z_MSC_CAPS_AirTemp_IsbL-0800_RLatLon0.03_PT012H.grib2 2026-04-29 06:07 1.0M
20260429T00Z_MSC_CAPS_AirTemp_IsbL-0850_RLatLon0.03_PT012H.grib2 2026-04-29 06:07 1.1M
20260429T00Z_MSC_CAPS_AirTemp_IsbL-0875_RLatLon0.03_PT012H.grib2 2026-04-29 06:07 1.1M
20260429T00Z_MSC_CAPS_AirTemp_IsbL-0900_RLatLon0.03_PT012H.grib2 2026-04-29 06:07 1.1M
20260429T00Z_MSC_CAPS_AirTemp_IsbL-0925_RLatLon0.03_PT012H.grib2 2026-04-29 06:07 1.2M
20260429T00Z_MSC_CAPS_AirTemp_IsbL-0950_RLatLon0.03_PT012H.grib2 2026-04-29 06:07 1.2M
20260429T00Z_MSC_CAPS_AirTemp_IsbL-0970_RLatLon0.03_PT012H.grib2 2026-04-29 06:07 1.2M
20260429T00Z_MSC_CAPS_AirTemp_IsbL-0985_RLatLon0.03_PT012H.grib2 2026-04-29 06:07 1.1M
20260429T00Z_MSC_CAPS_AirTemp_IsbL-1000_RLatLon0.03_PT012H.grib2 2026-04-29 06:07 1.0M
20260429T00Z_MSC_CAPS_AirTemp_IsbL-1015_RLatLon0.03_PT012H.grib2 2026-04-29 06:07 1.1M
20260429T00Z_MSC_CAPS_Albedo_Sfc_RLatLon0.03_PT012H.grib2 2026-04-29 06:07 2.7M
20260429T00Z_MSC_CAPS_CAPE_Sfc_RLatLon0.03_PT012H.grib2 2026-04-29 06:07 44K
20260429T00Z_MSC_CAPS_CloudWater_EAtm_RLatLon0.03_PT012H.grib2 2026-04-29 06:07 1.4M
20260429T00Z_MSC_CAPS_ConvectivePrecip-Accum_Sfc_RLatLon0.03_PT012H.grib2 2026-04-29 06:07 2.4M
20260429T00Z_MSC_CAPS_DewPointDepression_AGL-120m_RLatLon0.03_PT012H.grib2 2026-04-29 06:07 2.0M
20260429T00Z_MSC_CAPS_DewPointDepression_AGL-2m_RLatLon0.03_PT012H.grib2 2026-04-29 06:07 2.1M
20260429T00Z_MSC_CAPS_DewPointDepression_AGL-40m_RLatLon0.03_PT012H.grib2 2026-04-29 06:07 2.1M
20260429T00Z_MSC_CAPS_DewPointDepression_AGL-80m_RLatLon0.03_PT012H.grib2 2026-04-29 06:07 2.1M
20260429T00Z_MSC_CAPS_DewPointDepression_IsbL-0050_RLatLon0.03_PT012H.grib2 2026-04-29 06:07 567
20260429T00Z_MSC_CAPS_DewPointDepression_IsbL-0100_RLatLon0.03_PT012H.grib2 2026-04-29 06:07 141K
20260429T00Z_MSC_CAPS_DewPointDepression_IsbL-0150_RLatLon0.03_PT012H.grib2 2026-04-29 06:07 159K
20260429T00Z_MSC_CAPS_DewPointDepression_IsbL-0175_RLatLon0.03_PT012H.grib2 2026-04-29 06:07 213K
20260429T00Z_MSC_CAPS_DewPointDepression_IsbL-0200_RLatLon0.03_PT012H.grib2 2026-04-29 06:07 384K
20260429T00Z_MSC_CAPS_DewPointDepression_IsbL-0225_RLatLon0.03_PT012H.grib2 2026-04-29 06:07 687K
20260429T00Z_MSC_CAPS_DewPointDepression_IsbL-0250_RLatLon0.03_PT012H.grib2 2026-04-29 06:07 877K
20260429T00Z_MSC_CAPS_DewPointDepression_IsbL-0275_RLatLon0.03_PT012H.grib2 2026-04-29 06:07 1.0M
20260429T00Z_MSC_CAPS_DewPointDepression_IsbL-0300_RLatLon0.03_PT012H.grib2 2026-04-29 06:07 1.0M
20260429T00Z_MSC_CAPS_DewPointDepression_IsbL-0350_RLatLon0.03_PT012H.grib2 2026-04-29 06:07 1.1M
20260429T00Z_MSC_CAPS_DewPointDepression_IsbL-0400_RLatLon0.03_PT012H.grib2 2026-04-29 06:07 1.1M
20260429T00Z_MSC_CAPS_DewPointDepression_IsbL-0450_RLatLon0.03_PT012H.grib2 2026-04-29 06:07 1.1M
20260429T00Z_MSC_CAPS_DewPointDepression_IsbL-0500_RLatLon0.03_PT012H.grib2 2026-04-29 06:07 1.1M
20260429T00Z_MSC_CAPS_DewPointDepression_IsbL-0550_RLatLon0.03_PT012H.grib2 2026-04-29 06:07 1.2M
20260429T00Z_MSC_CAPS_DewPointDepression_IsbL-0600_RLatLon0.03_PT012H.grib2 2026-04-29 06:07 1.2M
20260429T00Z_MSC_CAPS_DewPointDepression_IsbL-0650_RLatLon0.03_PT012H.grib2 2026-04-29 06:07 1.2M
20260429T00Z_MSC_CAPS_DewPointDepression_IsbL-0700_RLatLon0.03_PT012H.grib2 2026-04-29 06:07 1.3M
20260429T00Z_MSC_CAPS_DewPointDepression_IsbL-0750_RLatLon0.03_PT012H.grib2 2026-04-29 06:07 1.3M
20260429T00Z_MSC_CAPS_DewPointDepression_IsbL-0800_RLatLon0.03_PT012H.grib2 2026-04-29 06:07 1.3M
20260429T00Z_MSC_CAPS_DewPointDepression_IsbL-0850_RLatLon0.03_PT012H.grib2 2026-04-29 06:07 1.3M
20260429T00Z_MSC_CAPS_DewPointDepression_IsbL-0875_RLatLon0.03_PT012H.grib2 2026-04-29 06:07 1.3M
20260429T00Z_MSC_CAPS_DewPointDepression_IsbL-0900_RLatLon0.03_PT012H.grib2 2026-04-29 06:07 1.3M
20260429T00Z_MSC_CAPS_DewPointDepression_IsbL-0925_RLatLon0.03_PT012H.grib2 2026-04-29 06:07 1.3M
20260429T00Z_MSC_CAPS_DewPointDepression_IsbL-0950_RLatLon0.03_PT012H.grib2 2026-04-29 06:07 1.3M
20260429T00Z_MSC_CAPS_DewPointDepression_IsbL-0970_RLatLon0.03_PT012H.grib2 2026-04-29 06:07 1.4M
20260429T00Z_MSC_CAPS_DewPointDepression_IsbL-0985_RLatLon0.03_PT012H.grib2 2026-04-29 06:07 1.4M
20260429T00Z_MSC_CAPS_DewPointDepression_IsbL-1000_RLatLon0.03_PT012H.grib2 2026-04-29 06:07 1.3M
20260429T00Z_MSC_CAPS_DewPointDepression_IsbL-1015_RLatLon0.03_PT012H.grib2 2026-04-29 06:07 1.3M
20260429T00Z_MSC_CAPS_DewPoint_AGL-120m_RLatLon0.03_PT012H.grib2 2026-04-29 06:07 3.6M
20260429T00Z_MSC_CAPS_DewPoint_AGL-2m_RLatLon0.03_PT012H.grib2 2026-04-29 06:07 2.2M
20260429T00Z_MSC_CAPS_DewPoint_AGL-40m_RLatLon0.03_PT012H.grib2 2026-04-29 06:07 3.7M
20260429T00Z_MSC_CAPS_DewPoint_AGL-80m_RLatLon0.03_PT012H.grib2 2026-04-29 06:07 3.6M
20260429T00Z_MSC_CAPS_DownwardLongwaveRadiationFlux-Accum_Sfc_RLatLon0.03_PT012H.grib2 2026-04-29 06:07 2.3M
20260429T00Z_MSC_CAPS_DownwardShortwaveRadiationFlux-Accum_NTAtm_RLatLon0.03_PT012H.grib2 2026-04-29 06:07 447K
20260429T00Z_MSC_CAPS_DownwardShortwaveRadiationFlux-Accum_Sfc_RLatLon0.03_PT012H.grib2 2026-04-29 06:07 2.3M
20260429T00Z_MSC_CAPS_FreezingRain-Accum_Sfc_RLatLon0.03_PT012H.grib2 2026-04-29 06:07 459K
20260429T00Z_MSC_CAPS_GeopotentialHeight_IsbL-0050_RLatLon0.03_PT012H.grib2 2026-04-29 06:07 644K
20260429T00Z_MSC_CAPS_GeopotentialHeight_IsbL-0100_RLatLon0.03_PT012H.grib2 2026-04-29 06:07 767K
20260429T00Z_MSC_CAPS_GeopotentialHeight_IsbL-0150_RLatLon0.03_PT012H.grib2 2026-04-29 06:07 731K
20260429T00Z_MSC_CAPS_GeopotentialHeight_IsbL-0175_RLatLon0.03_PT012H.grib2 2026-04-29 06:07 743K
20260429T00Z_MSC_CAPS_GeopotentialHeight_IsbL-0200_RLatLon0.03_PT012H.grib2 2026-04-29 06:07 746K
20260429T00Z_MSC_CAPS_GeopotentialHeight_IsbL-0225_RLatLon0.03_PT012H.grib2 2026-04-29 06:07 753K
20260429T00Z_MSC_CAPS_GeopotentialHeight_IsbL-0250_RLatLon0.03_PT012H.grib2 2026-04-29 06:07 765K
20260429T00Z_MSC_CAPS_GeopotentialHeight_IsbL-0275_RLatLon0.03_PT012H.grib2 2026-04-29 06:07 773K
20260429T00Z_MSC_CAPS_GeopotentialHeight_IsbL-0300_RLatLon0.03_PT012H.grib2 2026-04-29 06:07 778K
20260429T00Z_MSC_CAPS_GeopotentialHeight_IsbL-0350_RLatLon0.03_PT012H.grib2 2026-04-29 06:07 777K
20260429T00Z_MSC_CAPS_GeopotentialHeight_IsbL-0400_RLatLon0.03_PT012H.grib2 2026-04-29 06:07 770K
20260429T00Z_MSC_CAPS_GeopotentialHeight_IsbL-0450_RLatLon0.03_PT012H.grib2 2026-04-29 06:07 760K
20260429T00Z_MSC_CAPS_GeopotentialHeight_IsbL-0500_RLatLon0.03_PT012H.grib2 2026-04-29 06:07 752K
20260429T00Z_MSC_CAPS_GeopotentialHeight_IsbL-0550_RLatLon0.03_PT012H.grib2 2026-04-29 06:07 748K
20260429T00Z_MSC_CAPS_GeopotentialHeight_IsbL-0600_RLatLon0.03_PT012H.grib2 2026-04-29 06:07 630K
20260429T00Z_MSC_CAPS_GeopotentialHeight_IsbL-0650_RLatLon0.03_PT012H.grib2 2026-04-29 06:07 630K
20260429T00Z_MSC_CAPS_GeopotentialHeight_IsbL-0700_RLatLon0.03_PT012H.grib2 2026-04-29 06:07 802K
20260429T00Z_MSC_CAPS_GeopotentialHeight_IsbL-0750_RLatLon0.03_PT012H.grib2 2026-04-29 06:07 804K
20260429T00Z_MSC_CAPS_GeopotentialHeight_IsbL-0800_RLatLon0.03_PT012H.grib2 2026-04-29 06:07 885K
20260429T00Z_MSC_CAPS_GeopotentialHeight_IsbL-0850_RLatLon0.03_PT012H.grib2 2026-04-29 06:07 897K
20260429T00Z_MSC_CAPS_GeopotentialHeight_IsbL-0875_RLatLon0.03_PT012H.grib2 2026-04-29 06:07 904K
20260429T00Z_MSC_CAPS_GeopotentialHeight_IsbL-0900_RLatLon0.03_PT012H.grib2 2026-04-29 06:07 912K
20260429T00Z_MSC_CAPS_GeopotentialHeight_IsbL-0925_RLatLon0.03_PT012H.grib2 2026-04-29 06:07 922K
20260429T00Z_MSC_CAPS_GeopotentialHeight_IsbL-0950_RLatLon0.03_PT012H.grib2 2026-04-29 06:07 936K
20260429T00Z_MSC_CAPS_GeopotentialHeight_IsbL-0970_RLatLon0.03_PT012H.grib2 2026-04-29 06:07 948K
20260429T00Z_MSC_CAPS_GeopotentialHeight_IsbL-0985_RLatLon0.03_PT012H.grib2 2026-04-29 06:07 958K
20260429T00Z_MSC_CAPS_GeopotentialHeight_IsbL-1000_RLatLon0.03_PT012H.grib2 2026-04-29 06:07 968K
20260429T00Z_MSC_CAPS_GeopotentialHeight_IsbL-1015_RLatLon0.03_PT012H.grib2 2026-04-29 06:07 1.0M
20260429T00Z_MSC_CAPS_GeopotentialHeight_Sfc_RLatLon0.03_PT012H.grib2 2026-04-29 06:07 1.0M
20260429T00Z_MSC_CAPS_IcePellets-Accum_Sfc_RLatLon0.03_PT012H.grib2 2026-04-29 06:07 46K
20260429T00Z_MSC_CAPS_LatentHeatNetFlux_Sfc_RLatLon0.03_PT012H.grib2 2026-04-29 06:07 1.7M
20260429T00Z_MSC_CAPS_LiftedIndex-MU-VT_IsbL-0500_RLatLon0.03_PT012H.grib2 2026-04-29 06:07 3.3M
20260429T00Z_MSC_CAPS_MixedLayerThickness_Sfc_RLatLon0.03_PT012H.nc 2026-04-29 06:12 17M
20260429T00Z_MSC_CAPS_NetLongwaveRadiationFlux-Accum_Sfc_RLatLon0.03_PT012H.grib2 2026-04-29 06:07 2.6M
20260429T00Z_MSC_CAPS_NetShortwaveRadiationFlux-Accum_Sfc_RLatLon0.03_PT012H.grib2 2026-04-29 06:07 2.4M
20260429T00Z_MSC_CAPS_PlanetaryBoundaryLayerHeight_Sfc_RLatLon0.03_PT012H.grib2 2026-04-29 06:07 2.6M
20260429T00Z_MSC_CAPS_Precip-Accum_Sfc_RLatLon0.03_PT012H.grib2 2026-04-29 06:07 3.5M
20260429T00Z_MSC_CAPS_PrecipRate_Sfc_RLatLon0.03_PT012H.grib2 2026-04-29 06:07 445K
20260429T00Z_MSC_CAPS_PrecipType-Instant_Sfc_RLatLon0.03_PT012H.grib2 2026-04-29 06:07 1.6M
20260429T00Z_MSC_CAPS_Pressure_MSL_RLatLon0.03_PT012H.grib2 2026-04-29 06:07 775K
20260429T00Z_MSC_CAPS_Pressure_Sfc_RLatLon0.03_PT012H.grib2 2026-04-29 06:07 1.2M
20260429T00Z_MSC_CAPS_RadiativeTemp_Sfc_RLatLon0.03_PT012H.grib2 2026-04-29 06:07 2.1M
20260429T00Z_MSC_CAPS_Rain-Accum_Sfc_RLatLon0.03_PT012H.grib2 2026-04-29 06:07 1.7M
20260429T00Z_MSC_CAPS_RelativeHumidity_AGL-120m_RLatLon0.03_PT012H.grib2 2026-04-29 06:07 2.7M
20260429T00Z_MSC_CAPS_RelativeHumidity_AGL-2m_RLatLon0.03_PT012H.grib2 2026-04-29 06:07 3.0M
20260429T00Z_MSC_CAPS_RelativeHumidity_AGL-40m_RLatLon0.03_PT012H.grib2 2026-04-29 06:07 2.8M
20260429T00Z_MSC_CAPS_RelativeHumidity_AGL-80m_RLatLon0.03_PT012H.grib2 2026-04-29 06:07 2.7M
20260429T00Z_MSC_CAPS_RelativeHumidity_IsbL-0050_RLatLon0.03_PT012H.grib2 2026-04-29 06:07 1.0M
20260429T00Z_MSC_CAPS_RelativeHumidity_IsbL-0100_RLatLon0.03_PT012H.grib2 2026-04-29 06:07 874K
20260429T00Z_MSC_CAPS_RelativeHumidity_IsbL-0150_RLatLon0.03_PT012H.grib2 2026-04-29 06:07 769K
20260429T00Z_MSC_CAPS_RelativeHumidity_IsbL-0175_RLatLon0.03_PT012H.grib2 2026-04-29 06:07 504K
20260429T00Z_MSC_CAPS_RelativeHumidity_IsbL-0200_RLatLon0.03_PT012H.grib2 2026-04-29 06:07 676K
20260429T00Z_MSC_CAPS_RelativeHumidity_IsbL-0225_RLatLon0.03_PT012H.grib2 2026-04-29 06:07 886K
20260429T00Z_MSC_CAPS_RelativeHumidity_IsbL-0250_RLatLon0.03_PT012H.grib2 2026-04-29 06:07 1.1M
20260429T00Z_MSC_CAPS_RelativeHumidity_IsbL-0275_RLatLon0.03_PT012H.grib2 2026-04-29 06:07 1.3M
20260429T00Z_MSC_CAPS_RelativeHumidity_IsbL-0300_RLatLon0.03_PT012H.grib2 2026-04-29 06:07 1.5M
20260429T00Z_MSC_CAPS_RelativeHumidity_IsbL-0350_RLatLon0.03_PT012H.grib2 2026-04-29 06:07 1.8M
20260429T00Z_MSC_CAPS_RelativeHumidity_IsbL-0400_RLatLon0.03_PT012H.grib2 2026-04-29 06:07 1.9M
20260429T00Z_MSC_CAPS_RelativeHumidity_IsbL-0450_RLatLon0.03_PT012H.grib2 2026-04-29 06:07 2.0M
20260429T00Z_MSC_CAPS_RelativeHumidity_IsbL-0500_RLatLon0.03_PT012H.grib2 2026-04-29 06:07 2.1M
20260429T00Z_MSC_CAPS_RelativeHumidity_IsbL-0550_RLatLon0.03_PT012H.grib2 2026-04-29 06:07 2.1M
20260429T00Z_MSC_CAPS_RelativeHumidity_IsbL-0600_RLatLon0.03_PT012H.grib2 2026-04-29 06:07 2.1M
20260429T00Z_MSC_CAPS_RelativeHumidity_IsbL-0650_RLatLon0.03_PT012H.grib2 2026-04-29 06:07 2.1M
20260429T00Z_MSC_CAPS_RelativeHumidity_IsbL-0700_RLatLon0.03_PT012H.grib2 2026-04-29 06:07 2.3M
20260429T00Z_MSC_CAPS_RelativeHumidity_IsbL-0750_RLatLon0.03_PT012H.grib2 2026-04-29 06:07 2.3M
20260429T00Z_MSC_CAPS_RelativeHumidity_IsbL-0800_RLatLon0.03_PT012H.grib2 2026-04-29 06:07 2.3M
20260429T00Z_MSC_CAPS_RelativeHumidity_IsbL-0850_RLatLon0.03_PT012H.grib2 2026-04-29 06:07 2.4M
20260429T00Z_MSC_CAPS_RelativeHumidity_IsbL-0875_RLatLon0.03_PT012H.grib2 2026-04-29 06:07 2.4M
20260429T00Z_MSC_CAPS_RelativeHumidity_IsbL-0900_RLatLon0.03_PT012H.grib2 2026-04-29 06:07 2.5M
20260429T00Z_MSC_CAPS_RelativeHumidity_IsbL-0925_RLatLon0.03_PT012H.grib2 2026-04-29 06:07 2.5M
20260429T00Z_MSC_CAPS_RelativeHumidity_IsbL-0950_RLatLon0.03_PT012H.grib2 2026-04-29 06:07 2.7M
20260429T00Z_MSC_CAPS_RelativeHumidity_IsbL-0970_RLatLon0.03_PT012H.grib2 2026-04-29 06:07 2.8M
20260429T00Z_MSC_CAPS_RelativeHumidity_IsbL-0985_RLatLon0.03_PT012H.grib2 2026-04-29 06:07 2.8M
20260429T00Z_MSC_CAPS_RelativeHumidity_IsbL-1000_RLatLon0.03_PT012H.grib2 2026-04-29 06:07 2.9M
20260429T00Z_MSC_CAPS_RelativeHumidity_IsbL-1015_RLatLon0.03_PT012H.grib2 2026-04-29 06:07 3.0M
20260429T00Z_MSC_CAPS_Runoff-Accum_Sfc_RLatLon0.03_PT012H.grib2 2026-04-29 06:07 286K
20260429T00Z_MSC_CAPS_SeaIceAreaFraction_Sfc_RLatLon0.03_PT012H.nc 2026-04-29 06:12 15M
20260429T00Z_MSC_CAPS_SeaIceCompressiveStrength_Sfc_RLatLon0.03_PT012H.nc 2026-04-29 06:12 15M
20260429T00Z_MSC_CAPS_SeaIceDivergence_Sfc_RLatLon0.03_PT012H.nc 2026-04-29 06:12 15M
20260429T00Z_MSC_CAPS_SeaIceInternalPressure_Sfc_RLatLon0.03_PT012H.nc 2026-04-29 06:12 15M
20260429T00Z_MSC_CAPS_SeaIceShear_Sfc_RLatLon0.03_PT012H.nc 2026-04-29 06:12 14M
20260429T00Z_MSC_CAPS_SeaIceSnowTemp_Sfc_RLatLon0.03_PT012H.nc 2026-04-29 06:12 15M
20260429T00Z_MSC_CAPS_SeaIceSnowVolume_Sfc_RLatLon0.03_PT012H.nc 2026-04-29 06:12 15M
20260429T00Z_MSC_CAPS_SeaIceVelocityX_Sfc_RLatLon0.03_PT012H.nc 2026-04-29 06:12 15M
20260429T00Z_MSC_CAPS_SeaIceVelocityY_Sfc_RLatLon0.03_PT012H.nc 2026-04-29 06:12 15M
20260429T00Z_MSC_CAPS_SeaIceVolume_Sfc_RLatLon0.03_PT012H.nc 2026-04-29 06:12 15M
20260429T00Z_MSC_CAPS_SeaSurfaceHeight_Sfc_RLatLon0.03_PT012H.nc 2026-04-29 06:12 16M
20260429T00Z_MSC_CAPS_SeaWaterSalinity_DBS-0.5m_RLatLon0.03_PT012H.nc 2026-04-29 06:12 16M
20260429T00Z_MSC_CAPS_SeaWaterSalinity_DBS-all_RLatLon0.03_PT012H.nc 2026-04-29 06:12 107M
20260429T00Z_MSC_CAPS_SeaWaterTemp_DBS-0.5m_RLatLon0.03_PT012H.nc 2026-04-29 06:12 14M
20260429T00Z_MSC_CAPS_SeaWaterTemp_DBS-all_RLatLon0.03_PT012H.nc 2026-04-29 06:12 87M
20260429T00Z_MSC_CAPS_SeaWaterVelocityX_DBS-0.5m_RLatLon0.03_PT012H.nc 2026-04-29 06:12 17M
20260429T00Z_MSC_CAPS_SeaWaterVelocityX_DBS-all_RLatLon0.03_PT012H.nc 2026-04-29 06:12 210M
20260429T00Z_MSC_CAPS_SeaWaterVelocityY_DBS-0.5m_RLatLon0.03_PT012H.nc 2026-04-29 06:12 17M
20260429T00Z_MSC_CAPS_SeaWaterVelocityY_DBS-all_RLatLon0.03_PT012H.nc 2026-04-29 06:12 215M
20260429T00Z_MSC_CAPS_SensibleHeatNetFlux_Sfc_RLatLon0.03_PT012H.grib2 2026-04-29 06:07 2.0M
20260429T00Z_MSC_CAPS_ShowalterIndex_IsbL-0500_RLatLon0.03_PT012H.grib2 2026-04-29 06:07 4.3M
20260429T00Z_MSC_CAPS_Snow-Accum_Sfc_RLatLon0.03_PT012H.grib2 2026-04-29 06:07 2.7M
20260429T00Z_MSC_CAPS_SnowDensity_Sfc_RLatLon0.03_PT012H.grib2 2026-04-29 06:07 1.3M
20260429T00Z_MSC_CAPS_SnowDepthWaterEquivalent_Sfc_RLatLon0.03_PT012H.grib2 2026-04-29 06:07 704K
20260429T00Z_MSC_CAPS_SnowDepth_Sfc_RLatLon0.03_PT012H.grib2 2026-04-29 06:07 1.2M
20260429T00Z_MSC_CAPS_SoilTemp_DBS-0to10cm_RLatLon0.03_PT012H.grib2 2026-04-29 06:07 1.5M
20260429T00Z_MSC_CAPS_SoilTemp_Sfc_RLatLon0.03_PT012H.grib2 2026-04-29 06:07 1.9M
20260429T00Z_MSC_CAPS_SoilVolumetricIceContent_Sfc_RLatLon0.03_PT012H.grib2 2026-04-29 06:07 1.4M
20260429T00Z_MSC_CAPS_SoilVolumetricWaterContent_DBS-0to10cm_RLatLon0.03_PT012H.grib2 2026-04-29 06:07 1.2M
20260429T00Z_MSC_CAPS_SoilVolumetricWaterContent_DBS-0to1cm_RLatLon0.03_PT012H.grib2 2026-04-29 06:07 1.7M
20260429T00Z_MSC_CAPS_SpecificHumidity_AGL-120m_RLatLon0.03_PT012H.grib2 2026-04-29 06:07 1.6M
20260429T00Z_MSC_CAPS_SpecificHumidity_AGL-2m_RLatLon0.03_PT012H.grib2 2026-04-29 06:07 2.1M
20260429T00Z_MSC_CAPS_SpecificHumidity_AGL-40m_RLatLon0.03_PT012H.grib2 2026-04-29 06:07 1.7M
20260429T00Z_MSC_CAPS_SpecificHumidity_AGL-80m_RLatLon0.03_PT012H.grib2 2026-04-29 06:07 1.7M
20260429T00Z_MSC_CAPS_SpecificHumidity_IsbL-0050_RLatLon0.03_PT012H.grib2 2026-04-29 06:07 878K
20260429T00Z_MSC_CAPS_SpecificHumidity_IsbL-0100_RLatLon0.03_PT012H.grib2 2026-04-29 06:07 949K
20260429T00Z_MSC_CAPS_SpecificHumidity_IsbL-0150_RLatLon0.03_PT012H.grib2 2026-04-29 06:07 1.0M
20260429T00Z_MSC_CAPS_SpecificHumidity_IsbL-0175_RLatLon0.03_PT012H.grib2 2026-04-29 06:07 1.0M
20260429T00Z_MSC_CAPS_SpecificHumidity_IsbL-0200_RLatLon0.03_PT012H.grib2 2026-04-29 06:07 852K
20260429T00Z_MSC_CAPS_SpecificHumidity_IsbL-0225_RLatLon0.03_PT012H.grib2 2026-04-29 06:07 1.0M
20260429T00Z_MSC_CAPS_SpecificHumidity_IsbL-0250_RLatLon0.03_PT012H.grib2 2026-04-29 06:07 1.0M
20260429T00Z_MSC_CAPS_SpecificHumidity_IsbL-0275_RLatLon0.03_PT012H.grib2 2026-04-29 06:07 1.0M
20260429T00Z_MSC_CAPS_SpecificHumidity_IsbL-0300_RLatLon0.03_PT012H.grib2 2026-04-29 06:07 1.2M
20260429T00Z_MSC_CAPS_SpecificHumidity_IsbL-0350_RLatLon0.03_PT012H.grib2 2026-04-29 06:07 1.1M
20260429T00Z_MSC_CAPS_SpecificHumidity_IsbL-0400_RLatLon0.03_PT012H.grib2 2026-04-29 06:07 1.1M
20260429T00Z_MSC_CAPS_SpecificHumidity_IsbL-0450_RLatLon0.03_PT012H.grib2 2026-04-29 06:07 1.1M
20260429T00Z_MSC_CAPS_SpecificHumidity_IsbL-0500_RLatLon0.03_PT012H.grib2 2026-04-29 06:07 1.0M
20260429T00Z_MSC_CAPS_SpecificHumidity_IsbL-0550_RLatLon0.03_PT012H.grib2 2026-04-29 06:07 1.2M
20260429T00Z_MSC_CAPS_SpecificHumidity_IsbL-0600_RLatLon0.03_PT012H.grib2 2026-04-29 06:07 1.3M
20260429T00Z_MSC_CAPS_SpecificHumidity_IsbL-0650_RLatLon0.03_PT012H.grib2 2026-04-29 06:07 1.5M
20260429T00Z_MSC_CAPS_SpecificHumidity_IsbL-0700_RLatLon0.03_PT012H.grib2 2026-04-29 06:07 1.6M
20260429T00Z_MSC_CAPS_SpecificHumidity_IsbL-0750_RLatLon0.03_PT012H.grib2 2026-04-29 06:07 1.7M
20260429T00Z_MSC_CAPS_SpecificHumidity_IsbL-0800_RLatLon0.03_PT012H.grib2 2026-04-29 06:07 1.4M
20260429T00Z_MSC_CAPS_SpecificHumidity_IsbL-0850_RLatLon0.03_PT012H.grib2 2026-04-29 06:07 1.6M
20260429T00Z_MSC_CAPS_SpecificHumidity_IsbL-0875_RLatLon0.03_PT012H.grib2 2026-04-29 06:07 1.6M
20260429T00Z_MSC_CAPS_SpecificHumidity_IsbL-0900_RLatLon0.03_PT012H.grib2 2026-04-29 06:07 1.7M
20260429T00Z_MSC_CAPS_SpecificHumidity_IsbL-0925_RLatLon0.03_PT012H.grib2 2026-04-29 06:07 1.7M
20260429T00Z_MSC_CAPS_SpecificHumidity_IsbL-0950_RLatLon0.03_PT012H.grib2 2026-04-29 06:07 1.9M
20260429T00Z_MSC_CAPS_SpecificHumidity_IsbL-0970_RLatLon0.03_PT012H.grib2 2026-04-29 06:07 1.9M
20260429T00Z_MSC_CAPS_SpecificHumidity_IsbL-0985_RLatLon0.03_PT012H.grib2 2026-04-29 06:07 2.0M
20260429T00Z_MSC_CAPS_SpecificHumidity_IsbL-1000_RLatLon0.03_PT012H.grib2 2026-04-29 06:07 2.0M
20260429T00Z_MSC_CAPS_SpecificHumidity_IsbL-1015_RLatLon0.03_PT012H.grib2 2026-04-29 06:07 2.1M
20260429T00Z_MSC_CAPS_SpecificHumidity_Sfc_RLatLon0.03_PT012H.grib2 2026-04-29 06:07 2.0M
20260429T00Z_MSC_CAPS_StormRelativeHelicity_Sfc_RLatLon0.03_PT012H.grib2 2026-04-29 06:07 3.2M
20260429T00Z_MSC_CAPS_Thickness_IsbL-1000to0500_RLatLon0.03_PT012H.grib2 2026-04-29 06:07 429K
20260429T00Z_MSC_CAPS_TotalCloudCover_Sfc_RLatLon0.03_PT012H.grib2 2026-04-29 06:07 3.5M
20260429T00Z_MSC_CAPS_TurboclineDepth_Sfc_RLatLon0.03_PT012H.nc 2026-04-29 06:12 16M
20260429T00Z_MSC_CAPS_UpwardLongwaveRadiationFlux_NTAtm_RLatLon0.03_PT012H.grib2 2026-04-29 06:07 2.8M
20260429T00Z_MSC_CAPS_UpwardShortwaveRadiationFlux_NTAtm_RLatLon0.03_PT012H.grib2 2026-04-29 06:07 1.9M
20260429T00Z_MSC_CAPS_VerticalVelocity_IsbL-0250_RLatLon0.03_PT012H.grib2 2026-04-29 06:07 896K
20260429T00Z_MSC_CAPS_VerticalVelocity_IsbL-0500_RLatLon0.03_PT012H.grib2 2026-04-29 06:07 1.2M
20260429T00Z_MSC_CAPS_VerticalVelocity_IsbL-0700_RLatLon0.03_PT012H.grib2 2026-04-29 06:07 1.2M
20260429T00Z_MSC_CAPS_VerticalVelocity_IsbL-0850_RLatLon0.03_PT012H.grib2 2026-04-29 06:07 1.2M
20260429T00Z_MSC_CAPS_VerticalVelocity_IsbL-1000_RLatLon0.03_PT012H.grib2 2026-04-29 06:07 1.0M
20260429T00Z_MSC_CAPS_WindDir_AGL-10m_RLatLon0.03_PT012H.grib2 2026-04-29 06:07 2.4M
20260429T00Z_MSC_CAPS_WindDir_AGL-120m_RLatLon0.03_PT012H.grib2 2026-04-29 06:07 1.3M
20260429T00Z_MSC_CAPS_WindDir_AGL-40m_RLatLon0.03_PT012H.grib2 2026-04-29 06:07 1.4M
20260429T00Z_MSC_CAPS_WindDir_AGL-80m_RLatLon0.03_PT012H.grib2 2026-04-29 06:07 1.3M
20260429T00Z_MSC_CAPS_WindDir_IsbL-0050_RLatLon0.03_PT012H.grib2 2026-04-29 06:07 1.0M
20260429T00Z_MSC_CAPS_WindDir_IsbL-0100_RLatLon0.03_PT012H.grib2 2026-04-29 06:07 1.0M
20260429T00Z_MSC_CAPS_WindDir_IsbL-0150_RLatLon0.03_PT012H.grib2 2026-04-29 06:07 1.0M
20260429T00Z_MSC_CAPS_WindDir_IsbL-0175_RLatLon0.03_PT012H.grib2 2026-04-29 06:07 1.0M
20260429T00Z_MSC_CAPS_WindDir_IsbL-0200_RLatLon0.03_PT012H.grib2 2026-04-29 06:07 1.1M
20260429T00Z_MSC_CAPS_WindDir_IsbL-0225_RLatLon0.03_PT012H.grib2 2026-04-29 06:07 1.1M
20260429T00Z_MSC_CAPS_WindDir_IsbL-0250_RLatLon0.03_PT012H.grib2 2026-04-29 06:07 1.1M
20260429T00Z_MSC_CAPS_WindDir_IsbL-0275_RLatLon0.03_PT012H.grib2 2026-04-29 06:07 1.1M
20260429T00Z_MSC_CAPS_WindDir_IsbL-0300_RLatLon0.03_PT012H.grib2 2026-04-29 06:07 1.1M
20260429T00Z_MSC_CAPS_WindDir_IsbL-0350_RLatLon0.03_PT012H.grib2 2026-04-29 06:07 1.1M
20260429T00Z_MSC_CAPS_WindDir_IsbL-0400_RLatLon0.03_PT012H.grib2 2026-04-29 06:07 1.1M
20260429T00Z_MSC_CAPS_WindDir_IsbL-0450_RLatLon0.03_PT012H.grib2 2026-04-29 06:07 1.2M
20260429T00Z_MSC_CAPS_WindDir_IsbL-0500_RLatLon0.03_PT012H.grib2 2026-04-29 06:07 1.3M
20260429T00Z_MSC_CAPS_WindDir_IsbL-0550_RLatLon0.03_PT012H.grib2 2026-04-29 06:07 1.2M
20260429T00Z_MSC_CAPS_WindDir_IsbL-0600_RLatLon0.03_PT012H.grib2 2026-04-29 06:07 1.3M
20260429T00Z_MSC_CAPS_WindDir_IsbL-0650_RLatLon0.03_PT012H.grib2 2026-04-29 06:07 1.3M
20260429T00Z_MSC_CAPS_WindDir_IsbL-0700_RLatLon0.03_PT012H.grib2 2026-04-29 06:07 1.4M
20260429T00Z_MSC_CAPS_WindDir_IsbL-0750_RLatLon0.03_PT012H.grib2 2026-04-29 06:07 1.5M
20260429T00Z_MSC_CAPS_WindDir_IsbL-0800_RLatLon0.03_PT012H.grib2 2026-04-29 06:07 1.6M
20260429T00Z_MSC_CAPS_WindDir_IsbL-0850_RLatLon0.03_PT012H.grib2 2026-04-29 06:07 1.8M
20260429T00Z_MSC_CAPS_WindDir_IsbL-0875_RLatLon0.03_PT012H.grib2 2026-04-29 06:07 1.9M
20260429T00Z_MSC_CAPS_WindDir_IsbL-0900_RLatLon0.03_PT012H.grib2 2026-04-29 06:07 1.9M
20260429T00Z_MSC_CAPS_WindDir_IsbL-0925_RLatLon0.03_PT012H.grib2 2026-04-29 06:07 2.0M
20260429T00Z_MSC_CAPS_WindDir_IsbL-0950_RLatLon0.03_PT012H.grib2 2026-04-29 06:07 2.1M
20260429T00Z_MSC_CAPS_WindDir_IsbL-0970_RLatLon0.03_PT012H.grib2 2026-04-29 06:07 2.2M
20260429T00Z_MSC_CAPS_WindDir_IsbL-0985_RLatLon0.03_PT012H.grib2 2026-04-29 06:07 2.2M
20260429T00Z_MSC_CAPS_WindDir_IsbL-1000_RLatLon0.03_PT012H.grib2 2026-04-29 06:07 2.3M
20260429T00Z_MSC_CAPS_WindDir_IsbL-1015_RLatLon0.03_PT012H.grib2 2026-04-29 06:07 2.4M
20260429T00Z_MSC_CAPS_WindGust-Max_AGL-10m_RLatLon0.03_PT012H.grib2 2026-04-29 06:07 2.3M
20260429T00Z_MSC_CAPS_WindGust-Min_AGL-10m_RLatLon0.03_PT012H.grib2 2026-04-29 06:07 2.3M
20260429T00Z_MSC_CAPS_WindGust_AGL-10m_RLatLon0.03_PT012H.grib2 2026-04-29 06:07 2.3M
20260429T00Z_MSC_CAPS_WindSpeed_AGL-10m_RLatLon0.03_PT012H.grib2 2026-04-29 06:07 2.1M
20260429T00Z_MSC_CAPS_WindSpeed_AGL-120m_RLatLon0.03_PT012H.grib2 2026-04-29 06:07 1.2M
20260429T00Z_MSC_CAPS_WindSpeed_AGL-40m_RLatLon0.03_PT012H.grib2 2026-04-29 06:07 1.3M
20260429T00Z_MSC_CAPS_WindSpeed_AGL-80m_RLatLon0.03_PT012H.grib2 2026-04-29 06:07 1.2M
20260429T00Z_MSC_CAPS_WindSpeed_IsbL-0050_RLatLon0.03_PT012H.grib2 2026-04-29 06:07 1.0M
20260429T00Z_MSC_CAPS_WindSpeed_IsbL-0100_RLatLon0.03_PT012H.grib2 2026-04-29 06:07 1.0M
20260429T00Z_MSC_CAPS_WindSpeed_IsbL-0150_RLatLon0.03_PT012H.grib2 2026-04-29 06:07 1.1M
20260429T00Z_MSC_CAPS_WindSpeed_IsbL-0175_RLatLon0.03_PT012H.grib2 2026-04-29 06:07 1.2M
20260429T00Z_MSC_CAPS_WindSpeed_IsbL-0200_RLatLon0.03_PT012H.grib2 2026-04-29 06:07 1.2M
20260429T00Z_MSC_CAPS_WindSpeed_IsbL-0225_RLatLon0.03_PT012H.grib2 2026-04-29 06:07 955K
20260429T00Z_MSC_CAPS_WindSpeed_IsbL-0250_RLatLon0.03_PT012H.grib2 2026-04-29 06:07 1.0M
20260429T00Z_MSC_CAPS_WindSpeed_IsbL-0275_RLatLon0.03_PT012H.grib2 2026-04-29 06:07 1.0M
20260429T00Z_MSC_CAPS_WindSpeed_IsbL-0300_RLatLon0.03_PT012H.grib2 2026-04-29 06:07 1.0M
20260429T00Z_MSC_CAPS_WindSpeed_IsbL-0350_RLatLon0.03_PT012H.grib2 2026-04-29 06:07 1.0M
20260429T00Z_MSC_CAPS_WindSpeed_IsbL-0400_RLatLon0.03_PT012H.grib2 2026-04-29 06:07 1.0M
20260429T00Z_MSC_CAPS_WindSpeed_IsbL-0450_RLatLon0.03_PT012H.grib2 2026-04-29 06:07 1.0M
20260429T00Z_MSC_CAPS_WindSpeed_IsbL-0500_RLatLon0.03_PT012H.grib2 2026-04-29 06:07 1.0M
20260429T00Z_MSC_CAPS_WindSpeed_IsbL-0550_RLatLon0.03_PT012H.grib2 2026-04-29 06:07 1.2M
20260429T00Z_MSC_CAPS_WindSpeed_IsbL-0600_RLatLon0.03_PT012H.grib2 2026-04-29 06:07 1.4M
20260429T00Z_MSC_CAPS_WindSpeed_IsbL-0650_RLatLon0.03_PT012H.grib2 2026-04-29 06:07 1.4M
20260429T00Z_MSC_CAPS_WindSpeed_IsbL-0700_RLatLon0.03_PT012H.grib2 2026-04-29 06:07 1.5M
20260429T00Z_MSC_CAPS_WindSpeed_IsbL-0750_RLatLon0.03_PT012H.grib2 2026-04-29 06:07 1.5M
20260429T00Z_MSC_CAPS_WindSpeed_IsbL-0800_RLatLon0.03_PT012H.grib2 2026-04-29 06:07 1.6M
20260429T00Z_MSC_CAPS_WindSpeed_IsbL-0850_RLatLon0.03_PT012H.grib2 2026-04-29 06:07 1.6M
20260429T00Z_MSC_CAPS_WindSpeed_IsbL-0875_RLatLon0.03_PT012H.grib2 2026-04-29 06:07 1.7M
20260429T00Z_MSC_CAPS_WindSpeed_IsbL-0900_RLatLon0.03_PT012H.grib2 2026-04-29 06:07 1.7M
20260429T00Z_MSC_CAPS_WindSpeed_IsbL-0925_RLatLon0.03_PT012H.grib2 2026-04-29 06:07 1.8M
20260429T00Z_MSC_CAPS_WindSpeed_IsbL-0950_RLatLon0.03_PT012H.grib2 2026-04-29 06:07 1.8M
20260429T00Z_MSC_CAPS_WindSpeed_IsbL-0970_RLatLon0.03_PT012H.grib2 2026-04-29 06:07 1.9M
20260429T00Z_MSC_CAPS_WindSpeed_IsbL-0985_RLatLon0.03_PT012H.grib2 2026-04-29 06:07 2.0M
20260429T00Z_MSC_CAPS_WindSpeed_IsbL-1000_RLatLon0.03_PT012H.grib2 2026-04-29 06:07 2.0M
20260429T00Z_MSC_CAPS_WindSpeed_IsbL-1015_RLatLon0.03_PT012H.grib2 2026-04-29 06:07 2.1M
20260429T00Z_MSC_CAPS_WindU_AGL-10m_RLatLon0.03_PT012H.grib2 2026-04-29 06:07 1.5M
20260429T00Z_MSC_CAPS_WindU_AGL-120m_RLatLon0.03_PT012H.grib2 2026-04-29 06:07 1.0M
20260429T00Z_MSC_CAPS_WindU_AGL-40m_RLatLon0.03_PT012H.grib2 2026-04-29 06:07 940K
20260429T00Z_MSC_CAPS_WindU_AGL-80m_RLatLon0.03_PT012H.grib2 2026-04-29 06:07 911K
20260429T00Z_MSC_CAPS_WindU_IsbL-0050_RLatLon0.03_PT012H.grib2 2026-04-29 06:07 940K
20260429T00Z_MSC_CAPS_WindU_IsbL-0100_RLatLon0.03_PT012H.grib2 2026-04-29 06:07 1.0M
20260429T00Z_MSC_CAPS_WindU_IsbL-0150_RLatLon0.03_PT012H.grib2 2026-04-29 06:07 718K
20260429T00Z_MSC_CAPS_WindU_IsbL-0175_RLatLon0.03_PT012H.grib2 2026-04-29 06:07 733K
20260429T00Z_MSC_CAPS_WindU_IsbL-0200_RLatLon0.03_PT012H.grib2 2026-04-29 06:07 877K
20260429T00Z_MSC_CAPS_WindU_IsbL-0225_RLatLon0.03_PT012H.grib2 2026-04-29 06:07 895K
20260429T00Z_MSC_CAPS_WindU_IsbL-0250_RLatLon0.03_PT012H.grib2 2026-04-29 06:07 917K
20260429T00Z_MSC_CAPS_WindU_IsbL-0275_RLatLon0.03_PT012H.grib2 2026-04-29 06:07 713K
20260429T00Z_MSC_CAPS_WindU_IsbL-0300_RLatLon0.03_PT012H.grib2 2026-04-29 06:07 929K
20260429T00Z_MSC_CAPS_WindU_IsbL-0350_RLatLon0.03_PT012H.grib2 2026-04-29 06:07 945K
20260429T00Z_MSC_CAPS_WindU_IsbL-0400_RLatLon0.03_PT012H.grib2 2026-04-29 06:07 949K
20260429T00Z_MSC_CAPS_WindU_IsbL-0450_RLatLon0.03_PT012H.grib2 2026-04-29 06:07 961K
20260429T00Z_MSC_CAPS_WindU_IsbL-0500_RLatLon0.03_PT012H.grib2 2026-04-29 06:07 1.0M
20260429T00Z_MSC_CAPS_WindU_IsbL-0550_RLatLon0.03_PT012H.grib2 2026-04-29 06:07 900K
20260429T00Z_MSC_CAPS_WindU_IsbL-0600_RLatLon0.03_PT012H.grib2 2026-04-29 06:07 1.2M
20260429T00Z_MSC_CAPS_WindU_IsbL-0650_RLatLon0.03_PT012H.grib2 2026-04-29 06:07 1.2M
20260429T00Z_MSC_CAPS_WindU_IsbL-0700_RLatLon0.03_PT012H.grib2 2026-04-29 06:07 1.3M
20260429T00Z_MSC_CAPS_WindU_IsbL-0750_RLatLon0.03_PT012H.grib2 2026-04-29 06:07 1.0M
20260429T00Z_MSC_CAPS_WindU_IsbL-0800_RLatLon0.03_PT012H.grib2 2026-04-29 06:07 1.1M
20260429T00Z_MSC_CAPS_WindU_IsbL-0850_RLatLon0.03_PT012H.grib2 2026-04-29 06:07 1.3M
20260429T00Z_MSC_CAPS_WindU_IsbL-0875_RLatLon0.03_PT012H.grib2 2026-04-29 06:07 1.3M
20260429T00Z_MSC_CAPS_WindU_IsbL-0900_RLatLon0.03_PT012H.grib2 2026-04-29 06:07 1.3M
20260429T00Z_MSC_CAPS_WindU_IsbL-0925_RLatLon0.03_PT012H.grib2 2026-04-29 06:07 1.4M
20260429T00Z_MSC_CAPS_WindU_IsbL-0950_RLatLon0.03_PT012H.grib2 2026-04-29 06:07 1.4M
20260429T00Z_MSC_CAPS_WindU_IsbL-0970_RLatLon0.03_PT012H.grib2 2026-04-29 06:07 1.5M
20260429T00Z_MSC_CAPS_WindU_IsbL-0985_RLatLon0.03_PT012H.grib2 2026-04-29 06:07 1.4M
20260429T00Z_MSC_CAPS_WindU_IsbL-1000_RLatLon0.03_PT012H.grib2 2026-04-29 06:07 1.4M
20260429T00Z_MSC_CAPS_WindU_IsbL-1015_RLatLon0.03_PT012H.grib2 2026-04-29 06:07 1.5M
20260429T00Z_MSC_CAPS_WindV_AGL-10m_RLatLon0.03_PT012H.grib2 2026-04-29 06:07 2.0M
20260429T00Z_MSC_CAPS_WindV_AGL-120m_RLatLon0.03_PT012H.grib2 2026-04-29 06:07 1.2M
20260429T00Z_MSC_CAPS_WindV_AGL-40m_RLatLon0.03_PT012H.grib2 2026-04-29 06:07 1.2M
20260429T00Z_MSC_CAPS_WindV_AGL-80m_RLatLon0.03_PT012H.grib2 2026-04-29 06:07 1.2M
20260429T00Z_MSC_CAPS_WindV_IsbL-0050_RLatLon0.03_PT012H.grib2 2026-04-29 06:07 942K
20260429T00Z_MSC_CAPS_WindV_IsbL-0100_RLatLon0.03_PT012H.grib2 2026-04-29 06:07 804K
20260429T00Z_MSC_CAPS_WindV_IsbL-0150_RLatLon0.03_PT012H.grib2 2026-04-29 06:07 926K
20260429T00Z_MSC_CAPS_WindV_IsbL-0175_RLatLon0.03_PT012H.grib2 2026-04-29 06:07 732K
20260429T00Z_MSC_CAPS_WindV_IsbL-0200_RLatLon0.03_PT012H.grib2 2026-04-29 06:07 876K
20260429T00Z_MSC_CAPS_WindV_IsbL-0225_RLatLon0.03_PT012H.grib2 2026-04-29 06:07 895K
20260429T00Z_MSC_CAPS_WindV_IsbL-0250_RLatLon0.03_PT012H.grib2 2026-04-29 06:07 914K
20260429T00Z_MSC_CAPS_WindV_IsbL-0275_RLatLon0.03_PT012H.grib2 2026-04-29 06:07 921K
20260429T00Z_MSC_CAPS_WindV_IsbL-0300_RLatLon0.03_PT012H.grib2 2026-04-29 06:07 929K
20260429T00Z_MSC_CAPS_WindV_IsbL-0350_RLatLon0.03_PT012H.grib2 2026-04-29 06:07 945K
20260429T00Z_MSC_CAPS_WindV_IsbL-0400_RLatLon0.03_PT012H.grib2 2026-04-29 06:07 951K
20260429T00Z_MSC_CAPS_WindV_IsbL-0450_RLatLon0.03_PT012H.grib2 2026-04-29 06:07 966K
20260429T00Z_MSC_CAPS_WindV_IsbL-0500_RLatLon0.03_PT012H.grib2 2026-04-29 06:07 1.0M
20260429T00Z_MSC_CAPS_WindV_IsbL-0550_RLatLon0.03_PT012H.grib2 2026-04-29 06:07 903K
20260429T00Z_MSC_CAPS_WindV_IsbL-0600_RLatLon0.03_PT012H.grib2 2026-04-29 06:07 927K
20260429T00Z_MSC_CAPS_WindV_IsbL-0650_RLatLon0.03_PT012H.grib2 2026-04-29 06:07 1.2M
20260429T00Z_MSC_CAPS_WindV_IsbL-0700_RLatLon0.03_PT012H.grib2 2026-04-29 06:07 1.3M
20260429T00Z_MSC_CAPS_WindV_IsbL-0750_RLatLon0.03_PT012H.grib2 2026-04-29 06:07 1.3M
20260429T00Z_MSC_CAPS_WindV_IsbL-0800_RLatLon0.03_PT012H.grib2 2026-04-29 06:07 1.1M
20260429T00Z_MSC_CAPS_WindV_IsbL-0850_RLatLon0.03_PT012H.grib2 2026-04-29 06:07 1.5M
20260429T00Z_MSC_CAPS_WindV_IsbL-0875_RLatLon0.03_PT012H.grib2 2026-04-29 06:07 1.5M
20260429T00Z_MSC_CAPS_WindV_IsbL-0900_RLatLon0.03_PT012H.grib2 2026-04-29 06:07 1.6M
20260429T00Z_MSC_CAPS_WindV_IsbL-0925_RLatLon0.03_PT012H.grib2 2026-04-29 06:07 1.6M
20260429T00Z_MSC_CAPS_WindV_IsbL-0950_RLatLon0.03_PT012H.grib2 2026-04-29 06:07 1.7M
20260429T00Z_MSC_CAPS_WindV_IsbL-0970_RLatLon0.03_PT012H.grib2 2026-04-29 06:07 1.7M
20260429T00Z_MSC_CAPS_WindV_IsbL-0985_RLatLon0.03_PT012H.grib2 2026-04-29 06:07 1.8M
20260429T00Z_MSC_CAPS_WindV_IsbL-1000_RLatLon0.03_PT012H.grib2 2026-04-29 06:07 1.9M
20260429T00Z_MSC_CAPS_WindV_IsbL-1015_RLatLon0.03_PT012H.grib2 2026-04-29 06:07 2.0M